Location: ???? ???? ?????
(31.2680°N, 31.7283°E)
Time: 19:48:59
(UTC+00:00)

Cosmos 1455 - Pass Details

Date: 13 July 2020
Orbit: 500 x 521 km, 82.5° (Epoch: 06 August)

Event Time Altitude Azimuth Distance (km) Brightness Sun altitude
Rises 17:58:48 0° 351° (N) 2,648 6.5 -11.8°
Reaches altitude 10° 18:00:56 10° 348° (NNW) 1,758 5.6 -12.2°
Maximum altitude 18:04:46 69° 266° (W) 560 2.5 -12.9°
Drops below altitude 10° 18:08:35 10° 182° (S) 1,748 4.6 -13.5°
Enters shadow 18:09:04 - 182° (S) 1,946 4.8 -13.6°
